TimeCDT,TemperatureF,Dew PointF,Humidity,Sea Level PressureIn,VisibilityMPH,Wind Direction,Wind SpeedMPH,Gust SpeedMPH,PrecipitationIn,Events,Conditions,WindDirDegrees,DateUTC
9:15 AM,55.4,46.4,72,30.06,10.0,NW,15.0,19.6,N/A,,Mostly Cloudy,320,2012-10-01 14:15:00
9:35 AM,55.4,46.4,72,30.07,10.0,NW,18.4,-,N/A,,Partly Cloudy,320,2012-10-01 14:35:00
9:55 AM,57.2,46.4,67,30.08,10.0,NW,17.3,21.9,N/A,,Mostly Cloudy,320,2012-10-01 14:55:00
10:15 AM,57.2,44.6,63,30.08,10.0,NW,18.4,24.2,N/A,,Mostly Cloudy,320,2012-10-01 15:15:00
10:35 AM,57.2,44.6,63,30.08,10.0,NNW,25.3,-,N/A,,Partly Cloudy,330,2012-10-01 15:35:00
10:55 AM,59.0,44.6,59,30.09,10.0,NNW,21.9,27.6,N/A,,Clear,330,2012-10-01 15:55:00
11:15 AM,60.8,46.4,59,30.09,10.0,NNW,18.4,26.5,N/A,,Clear,330,2012-10-01 16:15:00
11:35 AM,62.6,46.4,55,30.09,10.0,NNW,18.4,-,N/A,,Clear,330,2012-10-01 16:35:00
11:55 AM,62.6,46.4,55,30.09,10.0,NNW,19.6,25.3,N/A,,Clear,330,2012-10-01 16:55:00
12:15 PM,64.4,44.6,49,30.09,10.0,NNW,18.4,-,N/A,,Clear,330,2012-10-01 17:15:00
12:35 PM,66.2,44.6,46,30.09,10.0,NNW,18.4,26.5,N/A,,Partly Cloudy,340,2012-10-01 17:35:00
1:15 PM,68.0,42.8,40,30.08,10.0,NNW,19.6,28.8,N/A,,Scattered Clouds,330,2012-10-01 18:15:00
1:35 PM,68.0,41.0,37,30.07,10.0,NNW,23.0,29.9,N/A,,Partly Cloudy,340,2012-10-01 18:35:00
1:55 PM,69.8,41.0,35,30.06,10.0,NW,20.7,26.5,N/A,,Partly Cloudy,320,2012-10-01 18:55:00
2:15 PM,69.8,41.0,35,30.05,10.0,NNW,20.7,29.9,N/A,,Clear,340,2012-10-01 19:15:00
2:55 PM,69.8,39.2,33,30.03,10.0,NW,21.9,27.6,N/A,,Partly Cloudy,310,2012-10-01 19:55:00
3:15 PM,69.8,39.2,33,30.04,10.0,NNW,21.9,27.6,N/A,,Clear,340,2012-10-01 20:15:00
3:35 PM,69.8,39.2,33,30.03,10.0,NW,19.6,29.9,N/A,,Clear,320,2012-10-01 20:35:00
3:55 PM,69.8,39.2,33,30.03,10.0,NNW,19.6,28.8,N/A,,Clear,340,2012-10-01 20:55:00
4:15 PM,69.8,39.2,33,30.03,10.0,NW,27.6,-,N/A,,Clear,320,2012-10-01 21:15:00
4:35 PM,69.8,39.2,33,30.03,10.0,NW,25.3,28.8,N/A,,Partly Cloudy,320,2012-10-01 21:35:00
4:55 PM,69.8,39.2,33,30.03,10.0,NW,16.1,25.3,N/A,,Clear,320,2012-10-01 21:55:00
5:15 PM,69.8,37.4,31,30.03,10.0,NNW,20.7,26.5,N/A,,Clear,330,2012-10-01 22:15:00
5:35 PM,69.8,37.4,31,30.02,10.0,NNW,16.1,-,N/A,,Clear,330,2012-10-01 22:35:00
5:55 PM,68.0,35.6,30,30.03,10.0,North,17.3,26.5,N/A,,Clear,350,2012-10-01 22:55:00
6:15 PM,68.0,35.6,30,30.03,10.0,NNW,16.1,-,N/A,,Clear,340,2012-10-01 23:15:00
6:35 PM,66.2,33.8,30,30.03,10.0,North,12.7,18.4,N/A,,Clear,350,2012-10-01 23:35:00
6:55 PM,64.4,33.8,32,30.04,10.0,NNW,12.7,-,N/A,,Clear,340,2012-10-01 23:55:00
7:15 PM,62.6,33.8,34,30.04,10.0,NNW,10.4,-,N/A,,Clear,340,2012-10-02 00:15:00
7:35 PM,60.8,32.0,34,30.04,10.0,NNW,9.2,-,N/A,,Clear,340,2012-10-02 00:35:00
7:55 PM,57.2,33.8,41,30.04,10.0,NNW,6.9,-,N/A,,Clear,330,2012-10-02 00:55:00
8:15 PM,57.2,33.8,41,30.04,10.0,WNW,6.9,-,N/A,,Clear,300,2012-10-02 01:15:00
8:35 PM,55.4,33.8,44,30.04,10.0,NW,6.9,-,N/A,,Clear,320,2012-10-02 01:35:00
8:55 PM,53.6,33.8,47,30.05,10.0,NW,8.1,-,N/A,,Clear,310,2012-10-02 01:55:00
9:15 PM,53.6,32.0,44,30.05,10.0,NW,9.2,-,N/A,,Clear,310,2012-10-02 02:15:00
9:35 PM,51.8,32.0,47,30.05,10.0,NW,8.1,-,N/A,,Clear,310,2012-10-02 02:35:00
9:55 PM,51.8,30.2,44,30.05,10.0,NW,8.1,-,N/A,,Clear,310,2012-10-02 02:55:00
10:15 PM,50.0,30.2,47,30.05,10.0,NW,9.2,-,N/A,,Clear,310,2012-10-02 03:15:00
10:35 PM,48.2,30.2,50,30.05,10.0,WNW,9.2,-,N/A,,Clear,300,2012-10-02 03:35:00
10:55 PM,48.2,32.0,54,30.04,10.0,NW,10.4,-,N/A,,Clear,310,2012-10-02 03:55:00
11:15 PM,46.4,30.2,53,30.04,10.0,WNW,11.5,-,N/A,,Clear,300,2012-10-02 04:15:00
11:35 PM,46.4,30.2,53,30.04,10.0,NW,10.4,-,N/A,,Clear,310,2012-10-02 04:35:00
11:55 PM,46.4,30.2,53,30.03,10.0,WNW,9.2,-,N/A,,Clear,300,2012-10-02 04:55:00